IRIDIUM 33 DEB, 35846

Orbit data source: Space-Track

IRIDIUM 33 DEB, 35846 is space debris in LEO originally from a launch on Sun, 14 Sep 1997 UTC launched from the Tyuratam Missile And Space Complex (TTMTR). The debris from Iridium 33, an American commercial communications satellite, has been tracked extensively since its accidental collision with the defunct Russian satellite Cosmos 2251 in 2009. This event, occurring at high speed in low Earth orbit (LEO), generated thousands of pieces of space debris, significantly increasing the risk of further collisions. The Iridium 33 debris cloud has impacted space traffic management and orbital debris mitigation strategies, making it a subject of ongoing study in space situational awareness.

Loading next visibility...
Identifier
35846, 1997-051SW
Orbit
LEO
Country
Flag of USUS
Related business
Manufacturer
Unknown
Mission
Spacecraft
Bus & Motor
Unknown
Mass
Unknown
Launch date (UTC)
1997-09-14 (29 years ago)
Launch vehicle
Unknown
Launch site
Tyuratam Missile And Space Complex (TTMTR)
Object type
Payload
Rocket body
Debris
Shape & HBR
Unknown shape, 0.1 m
Radar Cross Section
Small (<0.1 m²)

Expand to show TLE details & history
Last TLE update: 23 hours ago

TLE from 23 hours ago
0 IRIDIUM 33 DEB
1 35846U 97051SW  26208.28831814  .00001872  00000-0  54137-3 0  9992
2 35846  86.3769 322.1111 0019444 140.9694 219.2915 14.43975879745971
Epoch: 2026-07-27T06:55Z
TLE epoch observation values (Epoch: 2026-07-27T06:55:10.687Z)
Latitude
0.00002°
Longitude
-86.65747°
Altitude
759.19 km
Speed
7.469 km/s
True Right ascension
21h 28m 26s
True Declination
0° 00' 00"
Sunlit
Object was in full shadow at epoch
Visualization orbit readout
Latitude
Unknown
Longitude
Unknown
Altitude
Unknown
Speed
Unknown
Apparent Right ascension
Unknown
Apparent Declination
Unknown
Sunlit
N/A
Visualization observer readout
Local Sidereal Time
19:06:13
Azimuth
Unknown
Elevation
Unknown
Doppler factor
Unknown
Orbital elements
Apogee altitude
756.188 km
Perigee altitude
728.498 km
Semi-major axis
7,120.48 km
Eccentricity
0.00194
Inclination
86.3769°
RAAN
322.1111°
Arg. of periapsis
140.9694°
True anomaly
219.15067°
Mean anomaly
219.2915°
Eccentric anomaly
219.22106°
Mean motion
3.61226 °/min
Orbital period
99.66 mins
BSTAR
0.00054137

Documentation

Showing up to 5 results
|